Regional Weather Roundup
Issued by NWS

Home | Current Version | Previous Version | Graphics & Text | Print | Product List | Glossary On
Versions: 1 2 3 4 5 6 7 8 9 10 11 12 13 14 15 16 17 18 19 20 21 22 23 24 25 26 27 28 29 30 31 32 33 34 35 36 37 38 39 40 41 42 43 44 45 46 47 48 49 50
852
ASUS45 KCYS 100010
RWRWY

WYOMING REGIONAL WEATHER ROUNDUP
NATIONAL WEATHER SERVICE CHEYENNE WY
500 PM MST FRI DEC 09 2016

NOTE:  "FAIR" INDICATES FEW OR NO CLOUDS BELOW 12,000 FEET
WITH NO SIGNIFICANT WEATHER AND/OR OBSTRUCTIONS TO VISIBILITY.

WYZ001-100100-
YELLOWSTONE NATIONAL PARK

CITY           SKY/WX    TMP DP  RH WIND       PRES   REMARKS
LK YELLOWSTONE   N/A     25  22  88 CALM      29.97F
6HR MIN TEMP:  22; 6HR MAX TEMP:  26; 6HR PCP:  0.04;

W YELLOWSTONE  NOT AVBL

$$
WYZ002>013-054>058-071-098>099-100100-
NORTHERN WYOMING

CITY           SKY/WX    TMP DP  RH WIND       PRES   REMARKS
JACKSON        CLOUDY    28  28 100 SW9       30.00F VSB 1   WCI  20
CODY           FAIR       8   1  73 CALM      30.04F
GREYBULL       MOCLDY    14   1  56 S3        30.12S
6HR MIN TEMP:  12; 6HR MAX TEMP:  16;

WORLAND        FAIR      12   5  73 NE6       30.09F WCI   3
6HR MIN TEMP:   8; 6HR MAX TEMP:  14;

SHERIDAN       CLOUDY    10   2  69 SE5       30.15F WCI   2
6HR MIN TEMP:   8; 6HR MAX TEMP:  11;

BUFFALO        MOCLDY     6  -1  73 S8        30.09F WCI  -7
6HR MIN TEMP:   6; 6HR MAX TEMP:   9;

GILLETTE       MOCLDY     6   1  80 NE7       30.15F WCI  -6
6HR MIN TEMP:   3; 6HR MAX TEMP:   9;

HULETT         FAIR       3  -2  78 CALM      30.19F
NEWCASTLE      FAIR      10   3  72 NE3       30.19S

$$
WYZ014>020-022>026-101>103-100100-
CENTRAL WYOMING

CITY           SKY/WX    TMP DP  RH WIND       PRES   REMARKS
BIG PINEY      MOCLDY    13  11  92 N5        30.08S WCI   5
6HR MIN TEMP:  11; 6HR MAX TEMP:  19; 6HR PCP: TRACE;

PINEDALE       LGT SNOW  23  21  93 N6        30.08F WCI  16
DUBOIS         CLOUDY    32  21  64 NW9G16    29.94F WCI  24
LANDER         CLOUDY    16   6  65 CALM      30.01S
6HR MIN TEMP:  12; 6HR MAX TEMP:  19;

RIVERTON       FAIR      16   5  62 NE5       30.02F WCI   9
6HR MIN TEMP:  13; 6HR MAX TEMP:  21;

CASPER         MOCLDY     7   1  76 E7        30.05F WCI  -5
6HR MIN TEMP:   4; 6HR MAX TEMP:  10;

DOUGLAS        FAIR      10   3  73 SE5       30.11F WCI   2
6HR MIN TEMP:   5; 6HR MAX TEMP:  12;


$$
WYZ021-027>030-104>119-100100-
SOUTHERN WYOMING

CITY           SKY/WX    TMP DP  RH WIND       PRES   REMARKS
EVANSTON       CLOUDY    35  26  69 SW13      30.11F WCI  26
6HR MIN TEMP:  33; 6HR MAX TEMP:  38; 6HR PCP: TRACE;

KEMMERER         N/A     32  32 100 SW12      30.09F WCI  23
FORT BRIDGER   CLOUDY    37  30  78 SW6       30.14S WCI  32
ROCK SPRINGS   MOCLDY    35  28  75 W22       30.09S WCI  23
6HR MIN TEMP:  33; 6HR MAX TEMP:  37;

DIXON          CLOUDY    37  24  60 SW7       30.18R WCI  32
RAWLINS        CLOUDY    34  24  67 SW13      30.09F WCI  25
6HR MIN TEMP:  33; 6HR MAX TEMP:  39; 6HR PCP: TRACE;

SARATOGA       CLOUDY    34  27  75 S5        30.14R WCI  30
LARAMIE        MOCLDY    34  22  61 SW15      30.09R WCI  24
6HR MIN TEMP:  33; 6HR MAX TEMP:  37;

CHEYENNE       FAIR      42  22  44 SW7       30.08S
6HR MIN TEMP:  38; 6HR MAX TEMP:  46;

TORRINGTON     FAIR      19  10  68 S5        30.16S WCI  12
6HR MIN TEMP:  19; 6HR MAX TEMP:  27;

PINE BLUFFS    FAIR      21  16  79 NE6       30.13R WCI  14

$$




USA.gov is the U.S. government's official web portal to all federal, state and local government web resources and services.